Temp_Advection
nan nan nan nan nan nan nan nan nan nan nan nan nan nan nan nan nan nan nan nan nan nan nan nan nan nan nan nan nan nan nan nan nan nan nan nan nan nan nan nan nan nan nan nan
nan 0 0 0 0 0 0 0 0 0 0 0 -0 -0 0 0 -0 -1 -0 -0 0 0 0 -0 -0 -0 -0 0 0 -0 -0 -0 0 0 0 -1 -2 -2 -0 -0 -1 -1 -1 nan
nan -0 -0 0 0 -0 -0 0 0 0 0 -0 -0 -0 0 0 -0 -0 0 0 0 0 -0 -0 -0 -0 -0 -0 -0 0 -0 -0 0 -0 -0 -0 -1 -2 -1 -0 -0 -0 -0 nan
nan 0 -0 0 -0 0 -0 -0 -0 -0 -0 0 0 -0 0 -0 -0 -0 0 0 0 0 -0 -0 -0 -1 -1 -1 -1 -1 -0 0 0 -0 -1 -1 -1 -1 -1 -1 -1 -1 -0 nan
nan -0 0 0 0 0 0 -0 -0 -0 -0 -0 -0 0 -0 0 -0 0 -0 -0 -0 0 -0 -0 -0 -0 -1 -1 -1 -1 -1 -0 -0 0 -0 -0 -1 -1 -2 -0 -0 -1 -0 nan
nan 0 0 -0 -0 -0 0 0 -0 -0 -0 0 -0 0 -0 -0 0 0 -0 -0 0 0 -0 -0 0 0 -0 -0 -0 0 -0 0 -0 -0 0 0 -0 -1 -1 -1 -1 -1 -0 nan
nan -0 0 0 -0 0 -0 -0 -0 0 0 -0 -0 -0 -1 0 0 0 0 -0 0 -0 -0 -0 -0 -0 -0 -0 -0 -0 -0 0 0 -0 -0 0 0 -0 -1 -1 -1 -1 -1 nan
nan 0 0 0 0 0 0 -0 0 0 0 0 0 -1 -0 0 0 -0 -0 0 0 -0 -0 0 0 -0 -1 -1 -0 -0 -1 -1 -0 -0 -0 0 0 0 -1 -1 -1 -0 -0 nan
nan 0 -0 -0 0 -0 0 0 -0 -1 0 0 -0 -0 -0 0 0 -0 0 0 -0 -0 -0 0 0 0 -0 -1 -0 0 0 -0 -0 -0 -1 -0 -0 0 -0 -1 -1 -0 0 nan
nan -0 -0 -0 -0 -0 0 0 -0 0 -0 0 0 -1 -1 -0 0 0 0 -1 -1 -0 -0 0 0 0 -0 -0 0 0 0 0 0 0 0 -0 -0 -0 -0 -1 -0 0 1 nan
nan -0 -0 -0 0 -0 -0 -0 -0 0 0 0 -0 -0 0 0 1 1 -0 -2 -1 -0 0 0 0 0 -0 -0 0 0 0 1 0 0 0 0 0 -0 -1 -1 -1 -0 0 nan
nan -0 0 -0 -0 -0 -0 -0 -0 0 1 0 0 -1 0 1 0 -0 -1 -1 -0 0 0 1 0 0 0 -0 0 0 0 0 -0 -0 -0 0 0 0 -0 -1 -1 -0 -0 nan
nan 0 0 0 0 0 -0 0 -1 -0 0 -0 0 -0 0 0 -0 -0 -1 -1 0 1 1 0 0 0 -0 -0 -0 0 0 -0 -0 -0 0 -0 -0 -0 -0 -0 -1 0 0 nan
nan -0 0 0 -0 -0 -0 0 -0 -1 -0 -0 -1 -1 -1 1 1 -0 -1 -0 0 0 0 0 0 0 0 0 -0 0 0 -0 -0 0 0 0 -0 -0 -0 -0 -1 -1 0 nan
nan 0 0 -0 0 0 0 -0 -0 -0 -0 -0 1 0 -0 1 -0 -1 -1 0 -0 -0 1 0 0 0 0 0 0 0 -0 -0 -0 0 0 0 0 0 -0 -0 -0 -1 -0 nan
nan -0 -0 0 0 0 -0 -0 -0 0 0 -1 -1 -2 -2 1 1 0 -1 -0 1 1 1 0 0 0 -0 -0 -0 -0 -0 -0 0 0 -0 0 1 0 0 -0 -0 -0 -0 nan
nan 0 0 -0 -0 0 0 -1 -0 0 -0 -0 -0 0 -0 0 -0 -2 -1 -0 -0 0 0 0 0 0 0 -0 -0 -0 -0 0 0 0 0 0 0 0 0 0 0 -0 -0 nan
nan -0 -0 -0 0 -1 -0 -0 0 -0 -0 0 -0 0 -0 -1 -1 -1 -1 0 1 1 0 0 0 0 0 0 -0 -0 -0 0 0 0 -0 -0 -0 0 0 1 0 0 0 nan
nan -0 -0 0 -0 -1 0 0 0 0 -0 -1 -1 -0 0 -0 -1 -3 -0 0 1 1 0 0 0 0 0 0 0 0 -0 0 0 -0 -0 -0 -0 0 0 0 0 0 0 nan
nan 0 -0 0 0 -0 0 -0 -0 -0 -0 -0 0 0 0 0 0 -1 -1 0 0 0 0 0 0 0 0 0 0 -0 -0 0 -0 -0 -0 0 0 0 0 0 0 0 0 nan
nan 0 1 0 -0 -1 -0 0 -0 1 -0 -0 -1 -0 -1 -1 -2 -0 0 0 0 0 0 0 0 0 0 0 0 0 -0 -0 -0 -0 0 0 0 0 0 0 1 0 0 nan
nan -1 0 -0 0 -1 0 0 -1 -0 0 -0 -1 -1 -2 -1 0 1 0 0 0 0 0 0 0 0 0 0 0 0 0 -0 -0 -0 0 0 0 0 0 0 0 0 0 nan
nan -0 -0 -1 -1 -0 -1 -1 -1 -0 -0 -0 -0 -0 0 0 0 0 0 0 0 0 0 0 0 0 0 0 0 0 0 -0 -0 -0 0 -0 -0 0 0 -0 -0 0 -0 nan
nan 0 0 0 -0 0 -2 -2 -1 -1 -1 -0 1 1 0 -1 -1 0 0 1 1 0 0 1 0 0 0 0 0 0 0 0 0 -0 -0 0 0 -0 0 0 -0 -0 -0 nan
nan -0 -0 -0 -1 -1 -2 -2 -1 0 1 -0 -0 0 1 0 -0 -0 -0 0 1 1 1 0 -0 1 1 1 0 0 0 0 0 0 -0 0 -0 -0 -0 -0 -0 -0 -0 nan
nan nan nan nan nan nan nan nan nan nan nan nan nan nan nan nan nan nan nan nan nan nan nan nan nan nan nan nan nan nan nan nan nan nan nan nan nan nan nan nan nan nan nan nan
Wind_Speed
1 3 5 5 2 3 6 3 2 2 1 4 4 9 19 17 14 20 16 12 14 14 9 5 4 7 11 16 23 30 36 41 46 49 50 49 46 41 39 36 36 36 37 38
3 4 4 7 4 5 3 2 3 3 0 1 5 20 10 4 5 8 12 13 14 11 8 6 7 11 16 22 29 34 39 43 46 46 43 40 39 38 38 37 34 32 32 32
5 1 6 3 3 3 2 2 1 2 5 1 6 7 5 2 1 3 7 10 11 9 5 6 11 16 22 29 34 37 40 43 42 39 38 37 38 39 40 38 36 32 30 30
2 4 4 2 2 3 2 3 3 3 3 2 4 4 5 3 5 3 8 13 13 8 5 9 16 21 26 30 33 36 39 40 39 35 35 35 37 39 39 40 40 36 32 31
3 7 4 3 1 3 3 3 3 1 2 2 3 3 7 3 5 8 11 18 16 12 8 12 18 23 26 30 34 37 40 38 35 33 32 33 35 36 36 35 36 36 36 33
2 0 1 2 4 3 6 4 4 3 0 3 1 3 6 4 5 3 4 21 18 13 10 14 20 24 27 30 34 38 39 37 34 32 31 32 33 32 34 32 34 35 36 37
1 2 1 2 5 2 2 4 3 5 4 4 2 1 10 5 5 4 5 16 19 11 11 18 21 23 27 31 34 38 37 37 34 33 32 30 29 29 32 33 35 38 40 39
6 4 6 3 1 4 3 5 5 6 2 4 2 6 5 5 1 6 10 10 14 7 13 18 19 22 26 30 34 36 36 36 33 32 31 29 28 30 31 33 35 38 40 40
5 1 1 4 1 1 4 2 4 7 1 3 2 7 10 4 8 10 10 13 14 8 16 18 20 22 25 29 32 34 34 33 31 31 31 30 29 30 32 33 35 38 39 40
5 4 1 3 1 6 2 5 3 2 1 4 4 6 5 4 4 4 8 20 19 12 18 21 20 21 23 27 30 31 32 32 31 31 31 30 30 30 31 32 34 35 37 37
4 3 0 2 7 8 2 0 4 3 3 5 1 6 7 8 7 7 8 17 21 18 20 22 19 19 21 24 28 30 31 31 32 32 33 31 30 30 30 31 32 33 35 35
4 4 4 4 1 0 1 4 5 4 5 1 2 7 3 7 6 7 14 14 18 20 23 19 16 17 19 23 26 28 29 30 31 32 33 31 29 29 29 29 30 30 32 32
4 2 3 2 1 3 4 5 4 4 3 6 5 6 1 4 5 12 14 14 18 21 20 15 13 15 17 21 24 27 28 29 30 32 32 31 29 28 28 29 28 29 29 27
2 2 5 5 3 4 5 6 6 5 3 4 8 7 14 8 9 9 18 23 24 17 14 12 11 13 15 19 22 24 25 27 29 31 32 30 28 27 27 26 25 26 25 23
2 4 1 3 3 2 3 5 12 9 7 8 11 11 16 7 7 12 19 22 19 16 11 10 9 11 14 17 19 22 24 25 27 29 30 30 28 25 24 24 23 21 21 18
1 1 1 3 1 3 4 7 12 16 3 12 13 21 20 27 20 19 21 14 19 17 11 8 8 10 12 15 18 21 22 24 25 25 28 29 29 27 24 22 20 17 16 15
5 5 3 5 2 1 7 12 17 8 6 10 9 18 1 5 5 12 16 17 20 16 10 8 7 8 10 12 14 17 19 20 22 23 26 27 27 26 24 22 19 18 18 18
5 4 1 3 0 4 6 2 6 13 9 15 10 12 7 9 14 26 26 23 20 14 11 8 5 5 7 10 11 13 15 17 19 21 24 25 26 26 25 24 21 19 20 19
2 5 1 2 4 6 8 4 7 8 9 20 23 17 6 8 13 21 4 6 7 9 9 8 5 4 6 7 8 9 11 13 15 19 22 24 25 26 28 28 28 26 26 24
5 4 2 2 4 7 5 3 5 4 5 5 13 11 7 6 1 6 5 5 6 7 9 8 7 6 5 6 6 6 8 9 12 17 20 21 23 25 26 28 30 32 32 33
5 2 7 2 3 8 8 6 9 4 5 1 15 10 13 6 9 7 9 10 10 9 9 9 9 8 6 4 5 5 5 6 10 13 15 16 19 20 23 24 27 30 33 35
8 9 4 3 2 9 13 8 7 5 0 1 9 13 14 15 16 19 20 17 16 15 12 12 12 10 9 6 4 4 1 3 6 9 10 12 15 16 18 20 23 25 28 31
5 7 7 10 8 2 23 8 24 6 5 7 8 4 8 13 23 25 24 20 20 20 16 15 15 13 13 10 6 5 3 2 2 5 6 8 10 12 14 16 19 21 22 25
5 5 3 3 7 15 21 24 26 23 25 26 26 27 25 30 27 28 26 22 21 21 21 18 17 18 17 14 10 8 7 6 4 2 2 3 6 9 12 14 16 17 20 21
4 9 5 5 8 15 20 22 21 20 21 23 17 21 24 25 29 28 27 24 21 21 21 21 21 21 19 18 15 11 10 9 8 6 3 1 2 4 6 8 10 12 14 17
7 7 5 6 11 5 3 3 7 13 16 21 25 25 22 20 22 22 24 22 21 20 21 24 25 24 22 22 20 17 13 12 12 9 6 3 2 1 1 3 5 7 8 10
Wind_Direction
90 108 205 189 176 92 105 108 253 262 320 300 255 279 278 279 255 262 262 197 182 168 165 182 241 280 292 303 307 310 312 313 313 309 307 304 302 300 298 296 290 286 282 277
42 214 150 119 108 103 90 113 247 276 211 303 337 291 283 277 247 228 202 180 173 168 186 228 274 300 311 316 318 317 317 313 310 310 309 306 305 301 300 299 296 292 288 283
165 127 148 122 133 125 116 173 234 269 319 66 297 291 347 29 190 177 182 176 169 179 225 276 300 316 319 319 319 318 316 314 313 312 307 304 302 300 302 302 300 295 289 284
128 146 153 137 168 145 183 117 94 335 17 270 358 275 306 336 299 241 196 188 187 199 264 302 315 316 319 320 320 319 319 318 317 316 309 307 305 304 304 303 301 299 295 289
212 161 156 167 200 179 139 110 96 58 80 8 34 72 272 350 263 232 220 209 204 218 274 306 319 322 324 327 326 328 324 322 319 316 313 308 304 302 301 299 299 300 300 295
95 96 115 107 73 64 139 85 58 51 33 25 245 128 275 205 213 296 221 213 209 222 284 313 319 322 329 329 331 330 326 325 324 319 315 310 306 304 302 302 300 301 300 298
120 177 139 152 103 60 101 74 339 343 6 214 29 234 248 249 230 222 269 219 205 231 306 316 318 326 326 332 332 330 328 327 327 324 321 315 308 305 301 303 304 303 300 297
153 281 171 178 210 168 158 153 157 216 238 278 13 238 249 211 225 268 243 218 200 256 315 318 324 326 331 334 336 332 332 332 330 328 324 319 313 308 306 304 301 296 293 294
148 159 76 30 84 70 187 166 143 103 65 38 255 281 284 245 253 239 223 214 222 274 327 324 320 325 332 338 338 335 335 334 333 331 327 321 318 313 310 306 301 298 297 294
198 92 359 179 121 42 133 140 82 4 158 270 286 281 242 267 236 216 224 225 226 257 326 323 319 326 335 339 337 341 341 338 336 333 329 326 321 317 314 309 304 302 299 292
148 108 131 141 207 175 127 79 54 113 133 177 246 261 212 211 196 226 246 246 240 247 315 315 312 326 333 340 343 347 345 344 342 339 334 329 327 324 319 314 310 305 303 299
195 127 159 208 90 317 191 174 158 131 221 146 143 270 219 221 234 232 262 269 248 258 301 300 308 326 338 345 347 350 347 348 348 344 338 332 332 331 325 322 318 314 308 305
206 235 80 7 27 358 220 188 125 114 98 200 146 258 207 265 258 242 248 265 266 282 291 287 306 327 343 348 350 351 349 349 350 349 342 339 337 335 333 331 330 325 318 313
130 169 172 193 156 123 190 179 168 137 132 180 228 285 269 246 252 257 259 276 286 286 277 285 306 334 346 349 353 354 353 352 353 355 350 346 345 342 341 336 334 331 326 320
174 218 175 254 225 187 204 173 177 200 194 189 263 209 254 261 240 264 293 299 289 285 275 278 310 335 344 350 357 359 358 358 359 1 360 358 354 351 347 344 344 343 340 333
330 319 106 277 217 200 259 225 197 215 235 259 271 286 266 275 281 273 281 294 290 285 278 274 310 330 345 351 0 4 4 6 4 9 8 5 4 2 360 358 358 4 5 1
156 155 131 261 44 299 291 229 199 195 208 195 203 237 324 268 242 262 286 290 289 286 272 260 292 322 345 350 1 6 11 14 10 15 14 11 13 14 13 12 11 22 24 28
139 127 111 216 91 258 247 148 193 207 232 211 261 255 215 245 287 296 292 289 288 270 251 244 270 314 339 341 358 9 15 20 20 25 29 22 23 28 30 32 30 39 42 42
187 124 158 183 204 298 290 196 156 171 271 206 221 248 253 283 307 298 279 287 280 240 234 243 255 293 317 332 350 8 16 24 28 32 38 37 34 37 40 42 46 49 52 50
96 74 126 143 181 216 239 166 174 167 297 195 187 228 183 123 354 266 254 274 258 238 238 242 247 263 291 319 334 357 14 23 36 41 38 41 43 45 47 51 54 57 61 63
133 120 195 187 242 285 239 159 151 100 237 148 193 203 159 179 223 275 288 285 268 250 246 247 247 253 268 291 314 330 10 32 44 49 47 43 43 46 49 49 54 60 64 64
162 152 177 118 115 265 150 101 184 207 98 211 206 202 207 246 270 278 291 287 271 258 250 251 244 244 249 254 270 289 329 57 55 51 44 47 48 48 53 55 58 58 62 64
209 179 178 190 206 256 191 206 211 193 266 262 234 241 270 266 286 295 293 287 280 265 254 247 246 244 243 244 251 255 238 200 86 70 58 58 56 54 51 51 56 59 59 64
238 172 210 126 236 235 238 239 252 252 265 280 279 280 281 283 292 293 296 291 279 267 256 250 245 244 240 239 235 240 238 233 221 160 95 65 59 54 49 48 48 52 61 61
172 138 167 269 278 281 267 251 260 271 275 279 296 295 290 288 289 289 289 291 286 271 259 247 248 246 238 235 230 229 235 239 241 233 206 219 71 68 56 48 45 48 52 55
191 170 171 216 230 201 209 297 301 305 296 296 300 303 299 291 294 295 291 288 283 275 262 248 246 243 234 233 232 225 228 236 243 247 246 242 262 286 9 16 37 50 44 47
Height
1481 1485 1486 1484 1487 1489 1492 1492 1494 1496 1497 1498 1491 1488 1473 1471 1470 1469 1470 1473 1475 1475 1476 1477 1478 1479 1479 1478 1476 1473 1469 1464 1456 1450 1444 1437 1432 1430 1428 1427 1426 1426 1426 1427
1484 1482 1485 1487 1489 1490 1492 1494 1495 1497 1497 1497 1493 1477 1467 1464 1464 1463 1465 1468 1470 1471 1474 1476 1476 1476 1475 1473 1469 1466 1461 1456 1449 1441 1434 1429 1423 1421 1418 1416 1416 1416 1415 1415
1482 1484 1486 1486 1489 1488 1494 1493 1497 1498 1497 1498 1496 1472 1465 1463 1463 1463 1465 1466 1468 1470 1472 1473 1473 1472 1470 1467 1463 1459 1454 1448 1440 1434 1427 1421 1417 1412 1408 1407 1405 1406 1406 1405
1482 1485 1486 1486 1486 1488 1484 1496 1500 1501 1498 1499 1497 1495 1467 1466 1465 1463 1463 1463 1465 1467 1469 1469 1469 1467 1464 1461 1456 1452 1446 1439 1432 1427 1420 1415 1409 1404 1401 1397 1394 1394 1394 1393
1479 1486 1485 1485 1484 1488 1491 1496 1499 1503 1508 1507 1501 1511 1469 1468 1461 1459 1458 1459 1462 1464 1465 1465 1464 1462 1459 1453 1448 1442 1437 1432 1425 1419 1414 1407 1402 1398 1394 1391 1387 1385 1383 1384
1484 1484 1484 1485 1489 1491 1495 1498 1503 1508 1509 1521 1504 1504 1471 1464 1455 1452 1453 1455 1458 1461 1462 1461 1460 1457 1452 1448 1442 1435 1429 1424 1418 1412 1407 1401 1395 1390 1385 1383 1379 1377 1374 1371
1483 1484 1485 1485 1490 1494 1494 1501 1523 1516 1524 1507 1507 1505 1462 1452 1453 1452 1452 1452 1455 1458 1458 1457 1454 1450 1447 1442 1436 1430 1423 1416 1411 1405 1399 1394 1389 1384 1379 1374 1370 1367 1363 1360
1485 1487 1485 1484 1484 1485 1492 1499 1515 1511 1507 1508 1507 1497 1451 1448 1448 1448 1450 1451 1453 1454 1454 1452 1449 1445 1441 1436 1430 1424 1417 1411 1405 1399 1392 1387 1383 1377 1372 1367 1363 1359 1354 1351
1478 1476 1486 1486 1485 1487 1496 1503 1502 1536 1556 1526 1496 1475 1449 1445 1447 1447 1448 1450 1449 1450 1449 1446 1444 1441 1436 1431 1425 1420 1412 1406 1400 1393 1387 1381 1376 1371 1366 1361 1356 1351 1346 1342
1461 1484 1486 1488 1487 1489 1488 1494 1501 1515 1503 1506 1493 1490 1453 1439 1438 1444 1446 1444 1443 1444 1443 1441 1438 1435 1432 1427 1422 1415 1409 1401 1395 1388 1382 1376 1370 1365 1359 1353 1347 1342 1337 1333
1461 1466 1489 1487 1484 1481 1494 1498 1502 1503 1507 1508 1511 1465 1443 1438 1436 1441 1439 1438 1438 1438 1437 1436 1435 1432 1428 1423 1417 1411 1404 1397 1390 1383 1377 1370 1364 1358 1353 1347 1341 1334 1328 1323
1460 1469 1488 1476 1479 1478 1477 1479 1485 1493 1500 1516 1517 1472 1434 1435 1434 1435 1434 1434 1434 1434 1434 1432 1430 1428 1424 1419 1413 1407 1402 1395 1387 1380 1373 1366 1360 1353 1347 1340 1334 1328 1320 1314
1460 1470 1489 1476 1482 1480 1477 1476 1481 1498 1504 1503 1499 1455 1432 1433 1432 1431 1431 1431 1430 1430 1429 1427 1425 1423 1419 1415 1410 1405 1399 1392 1385 1377 1370 1363 1356 1349 1342 1335 1328 1322 1314 1307
1459 1464 1461 1449 1446 1460 1470 1469 1475 1483 1498 1493 1472 1456 1424 1430 1431 1426 1426 1425 1424 1422 1423 1422 1421 1418 1416 1413 1407 1402 1397 1391 1383 1376 1369 1361 1353 1346 1339 1332 1325 1318 1310 1303
1460 1462 1468 1463 1460 1460 1456 1462 1469 1471 1469 1459 1428 1454 1423 1421 1424 1419 1417 1417 1417 1416 1417 1417 1416 1414 1412 1410 1405 1400 1395 1389 1382 1375 1369 1361 1353 1345 1338 1331 1323 1316 1308 1301
1458 1460 1464 1462 1463 1464 1463 1457 1461 1458 1461 1460 1448 1438 1413 1413 1415 1414 1413 1413 1411 1412 1413 1412 1411 1410 1409 1407 1403 1398 1394 1388 1383 1376 1370 1362 1354 1345 1338 1330 1323 1316 1308 1301
1459 1463 1466 1461 1462 1463 1462 1441 1442 1445 1444 1438 1449 1414 1412 1412 1412 1410 1409 1409 1407 1407 1408 1407 1407 1407 1406 1404 1401 1397 1393 1389 1384 1378 1372 1365 1357 1348 1340 1332 1325 1317 1310 1304
1456 1461 1467 1470 1462 1457 1418 1417 1419 1424 1419 1425 1419 1408 1407 1406 1406 1405 1403 1401 1401 1402 1403 1404 1404 1404 1403 1402 1400 1396 1393 1389 1385 1379 1373 1368 1361 1352 1345 1337 1330 1322 1314 1309
1448 1455 1472 1463 1479 1438 1406 1420 1421 1422 1405 1401 1402 1397 1403 1405 1405 1398 1397 1397 1398 1398 1399 1400 1400 1400 1401 1400 1398 1395 1392 1390 1386 1381 1375 1370 1365 1358 1350 1343 1336 1328 1321 1316
1451 1452 1455 1484 1461 1452 1405 1407 1410 1412 1412 1387 1393 1396 1400 1404 1413 1402 1396 1395 1396 1396 1396 1396 1396 1397 1398 1397 1396 1393 1391 1389 1385 1381 1377 1374 1370 1364 1357 1351 1344 1337 1330 1323
1453 1460 1455 1482 1469 1441 1404 1406 1410 1417 1400 1389 1390 1391 1395 1400 1396 1394 1394 1394 1393 1393 1392 1393 1393 1394 1394 1393 1394 1392 1390 1388 1385 1382 1379 1377 1373 1368 1364 1359 1352 1346 1340 1334
1431 1446 1464 1477 1474 1442 1397 1407 1407 1392 1388 1388 1388 1389 1390 1390 1391 1390 1390 1389 1388 1388 1387 1388 1389 1390 1389 1389 1389 1390 1389 1387 1385 1382 1381 1378 1375 1372 1368 1364 1360 1354 1350 1344
1417 1410 1420 1421 1408 1389 1388 1382 1383 1384 1386 1387 1387 1387 1388 1387 1385 1385 1383 1383 1382 1382 1383 1383 1385 1386 1386 1387 1387 1387 1387 1386 1384 1382 1381 1379 1377 1375 1372 1369 1365 1361 1357 1352
1408 1403 1406 1406 1383 1384 1384 1383 1382 1382 1382 1382 1383 1383 1383 1380 1379 1377 1376 1376 1375 1376 1376 1378 1379 1380 1381 1383 1383 1384 1384 1384 1383 1382 1380 1379 1378 1376 1375 1372 1369 1366 1363 1360
1391 1396 1402 1399 1382 1380 1377 1376 1375 1377 1378 1378 1377 1377 1376 1374 1371 1371 1369 1369 1368 1368 1369 1370 1371 1372 1375 1377 1378 1379 1380 1381 1381 1380 1379 1378 1377 1375 1373 1372 1371 1369 1367 1364
1382 1383 1387 1383 1369 1369 1370 1371 1372 1372 1373 1373 1372 1370 1370 1368 1365 1364 1361 1361 1361 1361 1361 1362 1362 1365 1369 1371 1373 1373 1374 1376 1378 1378 1378 1378 1377 1376 1374 1373 1371 1370 1369 1368